Location: Writing-on-Stone Provincial Park
(49.0825°N, 111.6163°W)
Time: 06:32:59
(UTC-06:00)

Amateur Radio Satellites - All Passes

Search period start: 02 July 2015 06:02
Search period end: 03 July 2015 06:02
Location: Writing-on-Stone Provincial Park, 49.0825°N, 111.6163°W

Satellite Date Start Highest point End Downlink Frequencies (MHz)
Time Altitude Azimuth
Gurwin Techsat 1B 02 Jul 06:11:05 06:13:42 14° 307° (NW) 06:16:06 435.225
Cosmos 2491 02 Jul 06:12:22 06:16:21 13° 289° (WNW) 06:19:45 435.465 / 435.565
MOZHAYETS 4 02 Jul 06:12:41 06:16:16 22° 269° (W) 06:19:48
PRISM 02 Jul 06:18:29 06:21:26 19° 61° (ENE) 06:24:28 437.425
STRAND 1 02 Jul 06:21:30 06:25:42 27° 62° (ENE) 06:30:00 437.568
CUBESAT XI-V 02 Jul 06:30:13 06:34:52 65° 73° (ENE) 06:39:36 437.345
YUBILEINY 02 Jul 06:51:48 06:58:43 25° 304° (NW) 07:05:25 435.215
RS-15 02 Jul 06:57:35 07:07:58 42° 340° (NNW) 07:18:47 29.354- 29.394
JAS-2 02 Jul 06:59:10 07:04:01 24° 301° (WNW) 07:09:08 435.910
Cosmos 2504 02 Jul 07:01:30 07:08:40 75° 96° (E) 07:15:52 435.465 / 435.565
HORYU 2 02 Jul 07:02:23 07:05:14 17° 301° (WNW) 07:07:57 437.375
CUTE-I 02 Jul 07:07:13 07:11:54 30° 93° (E) 07:16:36 437.470
M-CUBED/EXP-1 PRIME 02 Jul 07:34:39 07:36:41 16° 56° (NE) 07:38:50 437.505
O/OREOS (USA 219) 02 Jul 07:34:41 07:35:29 11° 98° (E) 07:36:32 437.305
Cubesat XI-IV 02 Jul 07:40:16 07:45:35 56° 100° (E) 07:50:52 437.490
AO-7 02 Jul 07:40:47 07:48:04 34° 308° (NW) 07:55:12 29.400- 29.500
DANDE 02 Jul 07:49:31 07:53:32 17° 88° (E) 07:57:19 436.750
PRISM 02 Jul 07:52:27 07:56:32 53° 260° (W) 08:00:39 437.425
STRAND 1 02 Jul 07:59:37 08:04:39 52° 260° (W) 08:09:43 437.568
CUBESAT XI-V 02 Jul 08:09:38 08:12:50 17° 272° (W) 08:15:54 437.345
AUBIESAT-1 02 Jul 08:36:01 08:39:18 60° 67° (ENE) 08:42:45 437.475
CUSAT 1 02 Jul 08:43:56 08:50:12 51° 98° (E) 08:55:03 437.405
CUTE-I 02 Jul 08:47:03 08:52:11 46° 293° (WNW) 08:57:16 437.470
HO-68 02 Jul 08:54:00 08:59:06 21° 87° (E) 09:04:27 435.675
Cosmos 2504 02 Jul 08:57:10 09:02:58 25° 300° (WNW) 09:08:38 435.465 / 435.565
M-CUBED/EXP-1 PRIME 02 Jul 09:08:02 09:11:14 45° 255° (WSW) 09:14:32 437.505
BEESAT 3 02 Jul 09:08:48 09:12:51 67° 126° (SE) 09:16:58 437.485
O/OREOS (USA 219) 02 Jul 09:09:45 09:14:13 84° 115° (ESE) 09:18:43 437.305
RS-15 02 Jul 09:13:29 09:23:53 39° 14° (NNE) 09:34:48 29.354- 29.394
GOMX 1 02 Jul 09:13:58 09:17:47 31° 94° (E) 09:21:32 467.674
BEESAT 2 02 Jul 09:17:22 09:21:26 66° 125° (SE) 09:25:34 435.950
SEEDS 02 Jul 09:19:51 09:22:44 18° 89° (E) 09:25:45 437.485
Cubesat XI-IV 02 Jul 09:20:56 09:25:25 27° 299° (WNW) 09:29:46 437.490
BRITE-PL 02 Jul 09:25:23 09:29:52 67° 102° (ESE) 09:34:04 437.365/2234.400
GONETS M04 02 Jul 09:28:07 09:36:10 43° 87° (E) 09:44:17
DANDE 02 Jul 09:29:06 09:36:26 86° 101° (ESE) 09:42:00 436.750
UNISAT 6 02 Jul 09:31:15 09:32:58 12° 58° (ENE) 09:34:52 437.425
AO-7 02 Jul 09:35:36 09:38:24 12° 333° (NNW) 09:40:55 29.400- 29.500
AAUSAT CUBESAT 2 02 Jul 09:37:19 09:40:17 19° 90° (E) 09:43:20 437.432
CINEMA 3 02 Jul 09:37:47 09:40:27 17° 89° (E) 09:43:16 145.822/145.860
VERMONT LUNAR 02 Jul 09:47:41 09:48:07 10° 160° (SSE) 09:48:36 437.305
COMPASS 1 02 Jul 10:00:35 10:04:30 36° 96° (E) 10:08:26 437.405
CUTE 1.7 + AOD 2 02 Jul 10:02:18 10:06:31 56° 100° (E) 10:10:44 437.475
UWE-3 02 Jul 10:03:30 10:05:18 13° 87° (E) 10:07:17 435.000/436.395/437.385
CANX-2 02 Jul 10:05:14 10:09:31 67° 101° (E) 10:13:48 2200.000
QB50P2 02 Jul 10:07:10 10:09:02 13° 58° (ENE) 10:11:05 145.880/145.840
POPSAT HIP 1 02 Jul 10:08:34 10:10:25 13° 58° (ENE) 10:12:27 437.405
DOVE 4 02 Jul 10:10:04 10:14:17 73° 102° (ESE) 10:18:24 437.250
DELFI C3 02 Jul 10:10:52 10:12:54 14° 87° (E) 10:15:06 145.870
ANTELSAT 02 Jul 10:13:26 10:17:06 29° 66° (ENE) 10:20:49 437.575/2403.000
AUBIESAT-1 02 Jul 10:13:54 10:14:37 10° 267° (W) 10:15:10 437.475
AIST 2 02 Jul 10:19:15 10:23:30 73° 126° (SE) 10:27:47 435.215
TIGRISAT 02 Jul 10:26:38 10:30:33 36° 68° (ENE) 10:34:30 435.000
CUSAT 1 02 Jul 10:27:38 10:32:55 28° 291° (WNW) 10:37:06 437.405
HO-68 02 Jul 10:40:39 10:47:51 86° 289° (WNW) 10:55:02 435.675
CUBEBUG 2 02 Jul 10:42:04 10:45:57 37° 97° (E) 10:49:55 437.445
ISS 02 Jul 10:43:13 10:46:22 48° 151° (SSE) 10:49:31 145.825
QB50P1 02 Jul 10:45:51 10:49:26 27° 66° (ENE) 10:53:04 145.935-145.965
BEESAT 3 02 Jul 10:47:52 10:51:13 23° 326° (NNW) 10:54:32 437.485
O/OREOS (USA 219) 02 Jul 10:51:20 10:54:18 17° 317° (NW) 10:57:12 437.305
GOMX 1 02 Jul 10:52:12 10:55:56 29° 294° (WNW) 10:59:31 467.674
SEEDS 02 Jul 10:54:44 10:58:53 52° 288° (WNW) 11:03:02 437.485
ZACube-1 02 Jul 10:55:14 10:59:00 32° 96° (E) 11:02:52 437.345
BEESAT 2 02 Jul 10:56:29 10:59:53 24° 326° (NW) 11:03:16 435.950
NANOSAT C BR1 02 Jul 11:00:41 11:04:35 37° 68° (ENE) 11:08:30 145.865
UNISAT 6 02 Jul 11:04:52 11:09:10 89° 76° (ENE) 11:13:28 437.425
BRITE-PL 02 Jul 11:05:04 11:07:53 16° 301° (WNW) 11:10:30 437.365/2234.400
PHONESAT 2.4 02 Jul 11:06:57 11:07:37 10° 158° (SSE) 11:08:20 2401.200-2431.200
UKube-1 02 Jul 11:07:20 11:09:55 16° 89° (E) 11:12:40 .
DUCHIFAT 1 02 Jul 11:08:23 11:12:23 42° 70° (ENE) 11:16:24 145.980
Oscar 11 02 Jul 11:09:21 11:13:43 74° 102° (ESE) 11:18:03 145.826/435.025
POLYITAN 1 02 Jul 11:10:12 11:14:16 46° 70° (ENE) 11:18:21 437.675
AISAT 02 Jul 11:11:04 11:12:15 11° 85° (E) 11:13:40 437.250
AAUSAT CUBESAT 2 02 Jul 11:12:06 11:16:11 49° 288° (WNW) 11:20:15 437.432
CINEMA 3 02 Jul 11:14:00 11:18:03 52° 288° (WNW) 11:22:07 145.822/145.860
DANDE 02 Jul 11:15:11 11:20:02 20° 296° (WNW) 11:23:57 436.750
Cosmos 2499 02 Jul 11:21:24 11:27:53 42° 89° (E) 11:34:33 435.465 / 435.565
VERMONT LUNAR 02 Jul 11:22:09 11:24:20 17° 177° (S) 11:26:31 437.305
GONETS M04 02 Jul 11:24:25 11:32:57 52° 289° (WNW) 11:41:27
RS-15 02 Jul 11:27:05 11:38:39 71° 44° (NE) 11:50:45 29.354- 29.394
FUNcube-1 02 Jul 11:32:16 11:36:28 76° 103° (ESE) 11:40:43 145.935
ESTCUBE 1 02 Jul 11:33:32 11:35:34 13° 86° (E) 11:37:47 437.505/2401.250
HUMSAT D 02 Jul 11:34:09 11:38:00 37° 97° (E) 11:41:54 437.325/437.525
BUGSAT 1 02 Jul 11:36:04 11:40:13 56° 72° (ENE) 11:44:21 437.445
COMPASS 1 02 Jul 11:36:29 11:40:03 26° 294° (WNW) 11:43:33 437.405
CUBEBUG 1 02 Jul 11:36:42 11:37:55 11° 85° (E) 11:39:22 437.445
UWE-3 02 Jul 11:38:13 11:42:24 73° 286° (WNW) 11:46:38 435.000/436.395/437.385
CUTE 1.7 + AOD 2 02 Jul 11:39:03 11:42:05 19° 298° (WNW) 11:45:01 437.475
QB50P2 02 Jul 11:40:05 11:44:21 87° 256° (WSW) 11:48:38 145.880/145.840
POPSAT HIP 1 02 Jul 11:41:27 11:45:43 87° 251° (WSW) 11:50:00 437.405
CANX-2 02 Jul 11:42:17 11:45:01 16° 299° (WNW) 11:47:37 2200.000
DELFI C3 02 Jul 11:44:25 11:48:29 65° 287° (WNW) 11:52:30 145.870
DOVE 4 02 Jul 11:49:16 11:51:33 14° 301° (WNW) 11:53:40 437.250
ANTELSAT 02 Jul 11:49:56 11:53:51 33° 264° (W) 11:57:43 437.575/2403.000
AIST 2 02 Jul 11:59:01 12:02:31 23° 327° (NNW) 12:05:57 435.215
VELOX 1 02 Jul 11:59:05 12:03:03 31° 95° (E) 12:07:00 145.980
TIGRISAT 02 Jul 12:03:49 12:07:25 25° 266° (W) 12:10:58 435.000
50 SAT 02 Jul 12:04:34 12:08:15 39° 98° (E) 12:11:57 437.505
DX 1 02 Jul 12:17:32 12:21:56 82° 104° (ESE) 12:26:17 434.975-435.025
CUBEBUG 2 02 Jul 12:19:05 12:22:31 25° 295° (WNW) 12:25:57 437.445
ISS 02 Jul 12:19:33 12:22:46 58° 351° (N) 12:25:59 145.825
QB50P1 02 Jul 12:21:17 12:25:13 35° 264° (W) 12:29:07 145.935-145.965
HO-68 02 Jul 12:29:21 12:34:46 23° 309° (NW) 12:40:00 435.675
ZACube-1 02 Jul 12:31:42 12:35:19 28° 293° (WNW) 12:38:56 437.345
NANOSAT C BR1 02 Jul 12:36:57 12:40:31 25° 267° (W) 12:44:02 145.865
BEESAT 2 02 Jul 12:39:17 12:39:23 10° 349° (N) 12:39:27 435.950
UKube-1 02 Jul 12:42:14 12:46:32 63° 288° (WNW) 12:50:47 .
PHONESAT 2.4 02 Jul 12:42:21 12:44:52 19° 174° (S) 12:47:25 2401.200-2431.200
DUCHIFAT 1 02 Jul 12:45:03 12:48:24 22° 268° (W) 12:51:40 145.980
AISAT 02 Jul 12:45:08 12:49:36 90° 100° (E) 12:54:00 437.250
UNISAT 6 02 Jul 12:45:41 12:46:42 11° 275° (W) 12:47:29 437.425
SPROUT 02 Jul 12:46:35 12:49:29 18° 89° (E) 12:52:29 437.525
Oscar 11 02 Jul 12:46:48 12:49:24 15° 300° (WNW) 12:51:52 145.826/435.025
POLYITAN 1 02 Jul 12:47:14 12:50:26 20° 269° (W) 12:53:34 437.675
Oscar 19 02 Jul 12:49:45 12:53:58 27° 62° (ENE) 12:58:17 437.125/150
VERMONT LUNAR 02 Jul 12:58:51 13:00:36 14° 193° (SSW) 13:02:20 437.305
ITAMSAT 1 02 Jul 12:58:55 13:00:48 12° 52° (NE) 13:02:54 435.822/435.867
YUBILEINY 02 Jul 13:01:24 13:06:02 16° 46° (NE) 13:11:06 435.215
ESTCUBE 1 02 Jul 13:08:32 13:13:07 82° 285° (WNW) 13:17:39 437.505/2401.250
FUNcube-1 02 Jul 13:10:02 13:12:19 14° 300° (WNW) 13:14:29 145.935
HUMSAT D 02 Jul 13:10:11 13:13:37 25° 294° (WNW) 13:17:00 437.325/437.525
CUBEBUG 1 02 Jul 13:10:36 13:15:02 88° 283° (WNW) 13:19:24 437.445
AO-7 02 Jul 13:12:36 13:16:02 13° 31° (NNE) 13:19:46 29.400- 29.500
BUGSAT 1 02 Jul 13:13:14 13:16:04 17° 270° (W) 13:18:46 437.445
Cosmos 2499 02 Jul 13:14:27 13:21:06 42° 291° (WNW) 13:27:49 435.465 / 435.565
UWE-3 02 Jul 13:17:59 13:18:16 10° 303° (WNW) 13:18:21 435.000/436.395/437.385
QB50P2 02 Jul 13:20:32 13:21:00 10° 276° (W) 13:21:13 145.880/145.840
POPSAT HIP 1 02 Jul 13:21:56 13:22:21 10° 275° (W) 13:22:31 437.405
GONETS M04 02 Jul 13:28:13 13:32:35 14° 317° (NW) 13:36:30
VELOX 1 02 Jul 13:35:37 13:39:36 32° 294° (WNW) 13:43:30 145.980
TISAT 1 02 Jul 13:36:58 13:40:52 37° 97° (E) 13:44:46 437.305
50 SAT 02 Jul 13:39:40 13:42:40 21° 295° (WNW) 13:45:37 437.505
RS-15 02 Jul 13:39:55 13:50:45 45° 248° (WSW) 14:01:46 29.354- 29.394
AIST 2 02 Jul 13:41:47 13:42:34 10° 350° (N) 13:43:20 435.215
DX 1 02 Jul 13:55:12 13:57:38 14° 302° (WNW) 13:59:54 434.975-435.025
ISS 02 Jul 13:56:11 13:59:25 60° 10° (N) 14:02:38 145.825
BEESAT 3 02 Jul 14:09:40 14:10:23 10° 13° (NNE) 14:11:09 437.485
Gurwin Techsat 1B 02 Jul 14:14:58 14:19:59 45° 67° (ENE) 14:25:04 435.225
BEESAT 2 02 Jul 14:18:29 14:19:16 10° 13° (NNE) 14:20:07 435.950
PHONESAT 2.4 02 Jul 14:19:53 14:22:14 17° 191° (S) 14:24:35 2401.200-2431.200
SPROUT 02 Jul 14:21:44 14:25:56 53° 289° (WNW) 14:30:05 437.525
AISAT 02 Jul 14:23:20 14:25:33 13° 303° (WNW) 14:27:37 437.250
Oscar 19 02 Jul 14:28:06 14:33:06 50° 260° (W) 14:38:07 437.125/150
BEESAT 02 Jul 14:33:54 14:37:58 27° 93° (E) 14:42:04 436.000
ITAMSAT 1 02 Jul 14:34:15 14:39:23 62° 71° (ENE) 14:44:36 435.822/435.867
ESTCUBE 1 02 Jul 14:47:13 14:49:18 13° 304° (WNW) 14:51:14 437.505/2401.250
CUBEBUG 1 02 Jul 14:48:41 14:50:46 13° 303° (WNW) 14:52:40 437.445
SWISSCUBE 02 Jul 14:48:52 14:53:24 40° 97° (E) 14:57:55 437.505
HORYU 2 02 Jul 14:52:23 14:54:58 16° 59° (ENE) 14:57:42 437.375
ITUPSAT 1 02 Jul 14:53:03 14:57:34 39° 97° (E) 15:02:06 437.325
YUBILEINY 02 Jul 14:56:47 15:05:23 58° 73° (ENE) 15:14:01 435.215
AO-7 02 Jul 14:59:10 15:06:38 39° 55° (NE) 15:14:14 29.400- 29.500
TISAT 1 02 Jul 15:13:00 15:16:31 25° 295° (WNW) 15:19:55 437.305
AIST 2 02 Jul 15:21:33 15:23:00 11° 14° (NNE) 15:24:29 435.215
Cosmos 2491 02 Jul 15:22:49 15:30:28 36° 84° (E) 15:38:15 435.465 / 435.565
JAS-2 02 Jul 15:30:37 15:35:37 52° 68° (ENE) 15:40:55 435.910
ISS 02 Jul 15:32:39 15:35:47 45° 210° (SSW) 15:38:53 145.825
BEESAT 3 02 Jul 15:46:12 15:49:41 26° 36° (NE) 15:53:10 437.485
STARS 02 Jul 15:46:17 15:49:01 16° 89° (E) 15:51:51 437.465
BEESAT 2 02 Jul 15:55:11 15:58:42 26° 36° (NE) 16:02:12 435.950
Gurwin Techsat 1B 02 Jul 15:55:29 16:00:10 30° 266° (W) 16:04:49 435.225
BEESAT 02 Jul 16:11:26 16:15:59 42° 292° (WNW) 16:20:29 436.000
ITAMSAT 1 02 Jul 16:15:23 16:19:23 21° 270° (W) 16:23:17 435.822/435.867
AIST 1 02 Jul 16:18:15 16:22:17 37° 92° (E) 16:26:23
KKS-1 02 Jul 16:23:59 16:28:23 58° 101° (E) 16:32:45 437.445
HORYU 2 02 Jul 16:26:42 16:31:06 75° 255° (WSW) 16:35:34 437.375
SWISSCUBE 02 Jul 16:26:56 16:31:09 30° 296° (WNW) 16:35:17 437.505
ITUPSAT 1 02 Jul 16:31:08 16:35:23 30° 296° (WNW) 16:39:32 437.325
Cosmos 2504 02 Jul 16:47:54 16:54:43 36° 66° (ENE) 17:02:02 435.465 / 435.565
AO-7 02 Jul 16:50:52 16:59:09 63° 256° (WSW) 17:07:28 29.400- 29.500
YUBILEINY 02 Jul 16:54:05 17:01:57 38° 275° (W) 17:09:42 435.215
CUTE-I 02 Jul 16:56:27 16:59:03 14° 53° (NE) 17:01:52 437.470
AIST 2 02 Jul 16:59:09 17:02:54 30° 37° (NE) 17:06:38 435.215
PCSat 02 Jul 17:03:47 17:08:59 51° 118° (ESE) 17:14:16 145.827
JAS-2 02 Jul 17:17:04 17:21:15 23° 270° (W) 17:25:28 435.910
Cosmos 2491 02 Jul 17:18:12 17:26:57 62° 286° (WNW) 17:35:42 435.465 / 435.565
STARS 02 Jul 17:21:35 17:25:55 61° 289° (WNW) 17:30:13 437.465
BEESAT 3 02 Jul 17:23:54 17:27:53 52° 237° (WSW) 17:31:47 437.485
Cubesat XI-IV 02 Jul 17:28:03 17:32:12 24° 59° (ENE) 17:36:28 437.490
SO-50 02 Jul 17:30:21 17:33:48 21° 113° (ESE) 17:37:29 436.795
BEESAT 2 02 Jul 17:33:00 17:37:02 53° 237° (WSW) 17:40:58 435.950
O/OREOS (USA 219) 02 Jul 17:36:30 17:40:50 44° 56° (ENE) 17:45:12 437.305
AIST 1 02 Jul 17:56:21 18:00:04 26° 292° (WNW) 18:03:45
KKS-1 02 Jul 18:01:27 18:04:39 19° 299° (WNW) 18:07:44 437.445
MOZHAYETS 4 02 Jul 18:02:09 18:06:49 68° 102° (ESE) 18:11:27
CUBESAT XI-V 02 Jul 18:24:43 18:26:36 12° 84° (E) 18:28:44 437.345
CUTE-I 02 Jul 18:32:57 18:38:18 71° 72° (ENE) 18:43:42 437.470
AIST 2 02 Jul 18:37:34 18:41:39 47° 238° (WSW) 18:45:39 435.215
Cosmos 2504 02 Jul 18:41:08 18:48:31 57° 267° (W) 18:56:24 435.465 / 435.565
PCSat 02 Jul 18:47:38 18:52:38 36° 319° (NW) 18:57:38 145.827
AO-7 02 Jul 18:49:44 18:53:57 14° 279° (W) 18:57:38 29.400- 29.500
GOMX 1 02 Jul 18:52:17 18:52:51 10° 55° (NE) 18:53:41 467.674
BRITE-PL 02 Jul 19:02:41 19:06:32 21° 62° (ENE) 19:10:20 437.365/2234.400
Cubesat XI-IV 02 Jul 19:06:35 19:11:55 64° 258° (WSW) 19:17:18 437.490
SO-50 02 Jul 19:09:08 19:13:55 70° 312° (NW) 19:18:51 436.795
O/OREOS (USA 219) 02 Jul 19:16:21 19:20:04 25° 255° (WSW) 19:23:43 437.305
CUSAT 1 02 Jul 19:18:16 19:20:47 26° 69° (ENE) 19:23:05 437.405
Cosmos 2491 02 Jul 19:20:40 19:26:11 17° 313° (NW) 19:31:19 435.465 / 435.565
HO-68 02 Jul 19:27:19 19:33:02 28° 54° (NE) 19:38:54 435.675
CANX-2 02 Jul 19:29:47 19:30:52 11° 57° (ENE) 19:32:09 2200.000
PRISM 02 Jul 19:31:34 19:34:12 16° 89° (E) 19:36:55 437.425
GONETS M04 02 Jul 19:32:44 19:39:50 28° 58° (ENE) 19:47:06
MOZHAYETS 4 02 Jul 19:40:22 19:43:35 18° 300° (WNW) 19:46:41
DOVE 4 02 Jul 19:43:33 19:46:38 18° 62° (ENE) 19:49:44 437.250
CUBESAT XI-V 02 Jul 20:00:05 20:04:50 88° 284° (WNW) 20:09:30 437.345
STRAND 1 02 Jul 20:05:56 20:10:46 39° 97° (E) 20:15:35 437.568
DANDE 02 Jul 20:07:48 20:11:01 85° 77° (ENE) 20:13:43 436.750
CUTE-I 02 Jul 20:15:07 20:19:00 19° 272° (W) 20:22:44 437.470
SEEDS 02 Jul 20:15:55 20:19:06 22° 64° (ENE) 20:22:23 437.485
GOMX 1 02 Jul 20:25:11 20:30:14 59° 72° (ENE) 20:34:59 467.674
AAUSAT CUBESAT 2 02 Jul 20:32:05 20:35:16 22° 64° (ENE) 20:38:32 437.432
Oscar 11 02 Jul 20:34:36 20:36:35 13° 58° (ENE) 20:38:44 145.826/435.025
PCSat 02 Jul 20:34:49 20:37:43 14° 343° (NNW) 20:40:32 145.827
Cosmos 2504 02 Jul 20:38:12 20:40:32 11° 287° (WNW) 20:42:21 435.465 / 435.565
BRITE-PL 02 Jul 20:39:10 20:44:40 72° 259° (W) 20:49:49 437.365/2234.400
CINEMA 3 02 Jul 20:43:10 20:46:55 28° 66° (ENE) 20:50:38 145.822/145.860
SO-50 02 Jul 20:51:36 20:55:20 21° 335° (NNW) 20:59:05 436.795
COMPASS 1 02 Jul 20:55:35 20:59:29 41° 70° (ENE) 21:03:27 437.405
FUNcube-1 02 Jul 20:58:28 21:00:18 13° 59° (ENE) 21:02:17 145.935
CUTE 1.7 + AOD 2 02 Jul 20:58:54 21:03:04 67° 74° (ENE) 21:07:17 437.475
CANX-2 02 Jul 21:01:55 21:06:08 79° 73° (ENE) 21:10:23 2200.000
DELFI C3 02 Jul 21:02:14 21:04:37 16° 61° (ENE) 21:07:08 145.870
UWE-3 02 Jul 21:04:25 21:07:18 19° 63° (ENE) 21:10:16 435.000/436.395/437.385
PRISM 02 Jul 21:05:53 21:10:03 58° 289° (WNW) 21:14:09 437.425
Cosmos 2499 02 Jul 21:06:08 21:11:43 22° 57° (ENE) 21:17:51 435.465 / 435.565
HO-68 02 Jul 21:13:01 21:20:11 79° 254° (WSW) 21:27:23 435.675
DOVE 4 02 Jul 21:19:08 21:24:01 71° 258° (WSW) 21:28:37 437.250
GONETS M04 02 Jul 21:29:08 21:37:53 82° 263° (W) 21:46:34
CUBESAT XI-V 02 Jul 21:39:04 21:41:37 14° 303° (WNW) 21:43:59 437.345
DX 1 02 Jul 21:42:44 21:45:28 17° 60° (ENE) 21:48:19 434.975-435.025
CUBEBUG 2 02 Jul 21:44:10 21:48:20 52° 72° (ENE) 21:52:27 437.445
STRAND 1 02 Jul 21:45:17 21:49:55 34° 296° (WNW) 21:54:29 437.568
AUBIESAT-1 02 Jul 21:46:17 21:49:47 27° 101° (E) 21:53:33 437.475
SEEDS 02 Jul 21:50:39 21:54:39 44° 262° (W) 21:58:42 437.485
ZACube-1 02 Jul 21:55:06 21:59:05 43° 70° (ENE) 22:03:03 437.345
GOMX 1 02 Jul 22:04:48 22:08:42 21° 270° (W) 22:12:20 467.674
UKube-1 02 Jul 22:05:45 22:09:13 24° 63° (ENE) 22:12:44 .
AAUSAT CUBESAT 2 02 Jul 22:06:42 22:10:39 42° 262° (W) 22:14:38 437.432
Oscar 11 02 Jul 22:07:52 22:12:11 86° 256° (WSW) 22:16:32 145.826/435.025
AISAT 02 Jul 22:11:52 22:14:56 19° 61° (ENE) 22:18:06 437.250
M-CUBED/EXP-1 PRIME 02 Jul 22:18:20 22:22:23 62° 107° (ESE) 22:26:45 437.505
CINEMA 3 02 Jul 22:19:51 22:24:03 36° 263° (W) 22:28:05 145.822/145.860
PCSat 02 Jul 22:21:25 22:23:32 12° 9° (N) 22:25:43 145.827
BRITE-PL 02 Jul 22:22:15 22:24:04 11° 277° (W) 22:25:32 437.365/2234.400
HUMSAT D 02 Jul 22:29:45 22:33:38 44° 70° (ENE) 22:37:34 437.325/437.525
FUNcube-1 02 Jul 22:31:53 22:36:06 83° 259° (W) 22:40:17 145.935
COMPASS 1 02 Jul 22:32:06 22:35:22 22° 269° (W) 22:38:35 437.405
SO-50 02 Jul 22:35:16 22:37:40 13° 359° (N) 22:40:05 436.795
DELFI C3 02 Jul 22:35:19 22:39:17 61° 259° (W) 22:43:18 145.870
CUBEBUG 1 02 Jul 22:36:01 22:38:55 18° 61° (ENE) 22:41:57 437.445
ESTCUBE 1 02 Jul 22:36:39 22:39:59 21° 62° (ENE) 22:43:27 437.505/2401.250
CUTE 1.7 + AOD 2 02 Jul 22:37:12 22:39:31 14° 273° (W) 22:41:42 437.475
UWE-3 02 Jul 22:39:22 22:43:32 54° 260° (W) 22:47:40 435.000/436.395/437.385
CANX-2 02 Jul 22:40:59 22:42:42 12° 275° (W) 22:44:12 2200.000
50 SAT 02 Jul 22:52:32 22:56:07 39° 70° (ENE) 22:59:44 437.505
UNISAT 6 02 Jul 22:53:54 22:56:05 14° 87° (E) 22:58:28 437.425
Cosmos 2499 02 Jul 22:58:22 23:06:05 87° 81° (E) 23:14:25 435.465 / 435.565
VELOX 1 02 Jul 23:00:19 23:04:36 47° 70° (ENE) 23:08:55 145.980
HO-68 02 Jul 23:04:42 23:09:14 17° 276° (W) 23:13:25 435.675
DX 1 02 Jul 23:16:53 23:21:16 69° 258° (WSW) 23:25:39 434.975-435.025
AUBIESAT-1 02 Jul 23:20:49 23:24:35 38° 297° (WNW) 23:28:37 437.475
CUBEBUG 2 02 Jul 23:22:23 23:25:23 18° 270° (W) 23:28:13 437.445
QB50P2 02 Jul 23:23:24 23:24:47 12° 86° (E) 23:26:22 145.880/145.840
POPSAT HIP 1 02 Jul 23:24:40 23:25:59 11° 86° (E) 23:27:31 437.405
GONETS M04 02 Jul 23:27:37 23:33:30 20° 284° (WNW) 23:39:00
ZACube-1 02 Jul 23:32:24 23:35:40 21° 268° (W) 23:38:50 437.345
ANTELSAT 02 Jul 23:37:04 23:41:04 35° 96° (E) 23:45:11 437.575/2403.000
UKube-1 02 Jul 23:40:59 23:45:08 43° 261° (W) 23:49:19 .
SPROUT 02 Jul 23:44:33 23:48:01 24° 64° (ENE) 23:51:31 437.525
AISAT 02 Jul 23:46:41 23:51:07 62° 258° (WSW) 23:55:34 437.250
Oscar 11 02 Jul 23:48:34 23:49:09 10° 276° (W) 23:49:29 145.826/435.025
TIGRISAT 02 Jul 23:50:11 23:54:22 45° 99° (E) 23:58:37 435.000
M-CUBED/EXP-1 PRIME 02 Jul 23:54:04 23:56:55 18° 303° (WNW) 23:59:48 437.505
QB50P1 03 Jul 00:02:10 00:05:47 27° 94° (E) 00:09:25 145.935-145.965
PCSat 03 Jul 00:04:29 00:08:57 25° 34° (NE) 00:13:27 145.827
HUMSAT D 03 Jul 00:06:33 00:09:37 20° 269° (W) 00:12:38 437.325/437.525
CUBEBUG 1 03 Jul 00:10:26 00:14:52 65° 259° (W) 00:19:18 437.445
ESTCUBE 1 03 Jul 00:12:04 00:16:32 55° 260° (W) 00:21:02 437.505/2401.250
SO-50 03 Jul 00:16:27 00:20:03 20° 23° (NNE) 00:23:43 436.795
NANOSAT C BR1 03 Jul 00:16:56 00:20:51 37° 97° (E) 00:24:47 145.865
DUCHIFAT 1 03 Jul 00:24:28 00:28:30 44° 98° (E) 00:32:31 145.980
SWISSCUBE 03 Jul 00:25:05 00:26:55 12° 54° (NE) 00:28:56 437.505
POLYITAN 1 03 Jul 00:27:08 00:31:14 49° 100° (E) 00:35:20 437.675
50 SAT 03 Jul 00:28:04 00:30:56 19° 268° (W) 00:33:44 437.505
UNISAT 6 03 Jul 00:29:05 00:33:26 73° 286° (WNW) 00:37:50 437.425
ITUPSAT 1 03 Jul 00:29:30 00:31:19 12° 54° (NE) 00:33:21 437.325
TISAT 1 03 Jul 00:32:43 00:36:48 48° 70° (ENE) 00:40:55 437.305
VELOX 1 03 Jul 00:37:54 00:41:25 22° 268° (W) 00:44:52 145.980
BUGSAT 1 03 Jul 00:49:36 00:53:38 54° 100° (E) 00:57:36 437.445
Cosmos 2499 03 Jul 00:52:45 00:58:29 22° 279° (W) 01:04:11 435.465 / 435.565
QB50P2 03 Jul 00:57:05 01:01:20 81° 284° (WNW) 01:05:33 145.880/145.840
POPSAT HIP 1 03 Jul 00:58:18 01:02:32 82° 286° (WNW) 01:06:44 437.405
ANTELSAT 03 Jul 01:14:02 01:17:48 28° 294° (WNW) 01:21:33 437.575/2403.000
SPROUT 03 Jul 01:19:48 01:23:54 41° 262° (W) 01:28:00 437.525
Cosmos 2491 03 Jul 01:27:10 01:33:43 23° 54° (NE) 01:40:29 435.465 / 435.565
TIGRISAT 03 Jul 01:27:29 01:30:54 23° 296° (WNW) 01:34:17 435.000
QB50P1 03 Jul 01:37:53 01:41:42 33° 293° (WNW) 01:45:28 145.935-145.965
BEESAT 03 Jul 01:44:07 01:48:42 49° 69° (ENE) 01:53:20 436.000
PCSat 03 Jul 01:47:35 01:53:03 84° 238° (WSW) 01:58:29 145.827
KKS-1 03 Jul 01:52:19 01:54:20 13° 57° (ENE) 01:56:32 437.445
NANOSAT C BR1 03 Jul 01:53:04 01:56:33 25° 295° (WNW) 01:59:58 145.865
SO-50 03 Jul 01:56:38 02:01:35 61° 46° (NE) 02:06:28 436.795
SWISSCUBE 03 Jul 01:59:14 02:03:59 72° 72° (ENE) 02:08:49 437.505
RS-15 03 Jul 01:59:19 02:07:02 24° 102° (ESE) 02:15:23 29.354- 29.394
DUCHIFAT 1 03 Jul 02:00:48 02:04:05 22° 296° (WNW) 02:07:17 145.980
ITUPSAT 1 03 Jul 02:03:40 02:08:26 72° 72° (ENE) 02:13:16 437.325
POLYITAN 1 03 Jul 02:03:43 02:06:51 20° 297° (WNW) 02:09:54 437.675
UNISAT 6 03 Jul 02:08:26 02:09:31 11° 304° (NW) 02:10:25 437.425
TISAT 1 03 Jul 02:09:41 02:12:52 20° 269° (W) 02:15:56 437.305
YUBILEINY 03 Jul 02:13:26 02:16:01 12° 70° (ENE) 02:19:13 435.215
AIST 1 03 Jul 02:21:48 02:24:29 16° 63° (ENE) 02:27:17
BUGSAT 1 03 Jul 02:25:56 02:28:45 18° 298° (WNW) 02:31:27 437.445
Gurwin Techsat 1B 03 Jul 02:28:46 02:30:51 13° 83° (E) 02:33:14 435.225
QB50P2 03 Jul 02:35:08 02:36:34 11° 303° (WNW) 02:37:50 145.880/145.840
Oscar 19 03 Jul 02:35:19 02:40:10 42° 97° (E) 02:45:02 437.125/150
POPSAT HIP 1 03 Jul 02:36:20 02:37:45 11° 303° (WNW) 02:39:00 437.405
ITAMSAT 1 03 Jul 02:44:11 02:47:16 16° 87° (E) 02:50:33 435.822/435.867
STARS 03 Jul 02:46:50 02:50:24 25° 64° (ENE) 02:54:02 437.465
BEESAT 03 Jul 03:22:57 03:26:49 24° 268° (W) 03:30:38 436.000
Cosmos 2491 03 Jul 03:23:22 03:32:12 85° 79° (E) 03:40:57 435.465 / 435.565
KKS-1 03 Jul 03:25:52 03:30:21 88° 77° (ENE) 03:34:50 437.445
PCSat 03 Jul 03:32:40 03:35:45 15° 255° (WSW) 03:38:35 145.827
MOZHAYETS 4 03 Jul 03:33:18 03:35:52 15° 58° (ENE) 03:38:35
SO-50 03 Jul 03:37:44 03:41:49 25° 245° (WSW) 03:45:46 436.795
SWISSCUBE 03 Jul 03:39:22 03:42:26 16° 272° (W) 03:45:21 437.505
ITUPSAT 1 03 Jul 03:43:50 03:46:55 16° 272° (W) 03:49:51 437.325
AIST 1 03 Jul 03:58:19 04:02:40 64° 264° (W) 04:06:57
YUBILEINY 03 Jul 04:02:39 04:11:01 57° 91° (E) 04:19:29 435.215
Gurwin Techsat 1B 03 Jul 04:06:28 04:11:50 80° 104° (ESE) 04:17:10 435.225
RS-15 03 Jul 04:06:53 04:17:47 81° 125° (SE) 04:29:11 29.354- 29.394
HORYU 2 03 Jul 04:14:53 04:17:33 16° 88° (E) 04:20:23 437.375
Oscar 19 03 Jul 04:14:55 04:19:26 32° 296° (WNW) 04:23:54 437.125/150
JAS-2 03 Jul 04:18:15 04:24:10 38° 95° (E) 04:30:47 435.910
ITAMSAT 1 03 Jul 04:22:15 04:27:31 81° 287° (WNW) 04:32:44 435.822/435.867
STARS 03 Jul 04:22:29 04:26:40 41° 262° (W) 04:30:51 437.465
AO-7 03 Jul 04:47:51 04:55:23 37° 95° (E) 05:03:00 29.400- 29.500
KKS-1 03 Jul 05:05:59 05:07:43 12° 275° (W) 05:09:13 437.445
MOZHAYETS 4 03 Jul 05:07:56 05:12:31 82° 256° (WSW) 05:17:09
Cosmos 2491 03 Jul 05:21:24 05:28:08 25° 281° (W) 05:34:32 435.465 / 435.565
CUBESAT XI-V 03 Jul 05:31:27 05:34:54 21° 62° (ENE) 05:38:28 437.345
Cosmos 2504 03 Jul 05:33:40 05:38:51 23° 81° (E) 05:44:16 435.465 / 435.565
Gurwin Techsat 1B 03 Jul 05:47:31 05:51:16 19° 303° (WNW) 05:54:52 435.225
STRAND 1 03 Jul 05:49:28 05:52:22 16° 55° (NE) 05:55:26 437.568
HORYU 2 03 Jul 05:50:15 05:54:42 66° 288° (WNW) 05:59:07 437.375
